TimeMST,TemperatureF,Dew PointF,Humidity,Sea Level PressureIn,VisibilityMPH,Wind Direction,Wind SpeedMPH,Gust SpeedMPH,PrecipitationIn,Events,Conditions,WindDirDegrees,DateUTC
12:53 AM,-4.0,-7.1,87,30.89,5.0,Calm,Calm,-,N/A,,Clear,0,2013-01-17 07:53:00
1:20 AM,-5.8,-9.4,84,30.61,10.0,Calm,Calm,-,N/A,,Scattered Clouds,0,2013-01-17 08:20:00
1:53 AM,-6.0,-9.9,83,30.90,10.0,NE,3.5,-,N/A,,Scattered Clouds,40,2013-01-17 08:53:00
2:01 AM,-7.6,-11.2,84,30.61,10.0,NE,4.6,-,N/A,,Mostly Cloudy,50,2013-01-17 09:01:00
2:26 AM,-5.8,-9.4,84,30.61,10.0,Calm,Calm,-,N/A,,Scattered Clouds,0,2013-01-17 09:26:00
2:53 AM,-6.0,-9.0,87,30.89,10.0,Calm,Calm,-,N/A,,Clear,0,2013-01-17 09:53:00
3:31 AM,-7.6,-11.2,84,30.60,10.0,Calm,Calm,-,N/A,,Partly Cloudy,0,2013-01-17 10:31:00
3:53 AM,-6.0,-9.9,83,30.89,10.0,Calm,Calm,-,N/A,,Scattered Clouds,0,2013-01-17 10:53:00
5:53 AM,-8.0,-11.9,83,30.88,10.0,ENE,5.8,-,N/A,,Clear,70,2013-01-17 12:53:00
6:53 AM,-6.0,-9.0,87,30.87,10.0,NE,4.6,-,N/A,,Clear,40,2013-01-17 13:53:00
7:32 AM,-5.8,-9.4,84,30.58,10.0,ENE,3.5,-,N/A,,Partly Cloudy,60,2013-01-17 14:32:00
7:53 AM,-7.1,-9.9,87,30.88,10.0,Calm,Calm,-,N/A,,Scattered Clouds,0,2013-01-17 14:53:00
8:00 AM,-7.6,-11.2,84,30.59,10.0,NE,4.6,-,N/A,,Mostly Cloudy,50,2013-01-17 15:00:00
8:32 AM,-7.6,-11.2,84,30.60,10.0,ENE,4.6,-,N/A,,Scattered Clouds,60,2013-01-17 15:32:00
8:53 AM,-5.1,-8.0,87,30.90,10.0,Calm,Calm,-,N/A,,Clear,0,2013-01-17 15:53:00
9:53 AM,-0.9,-5.1,83,30.90,10.0,NE,5.8,-,N/A,,Clear,40,2013-01-17 16:53:00
10:53 AM,1.9,-2.9,80,30.90,10.0,ENE,4.6,-,N/A,,Clear,60,2013-01-17 17:53:00
11:53 AM,7.0,-0.9,70,30.87,10.0,NNE,3.5,-,N/A,,Clear,30,2013-01-17 18:53:00
12:53 PM,10.9,1.0,64,30.84,10.0,Calm,Calm,-,N/A,,Clear,0,2013-01-17 19:53:00
1:53 PM,15.1,3.9,61,30.81,10.0,Calm,Calm,-,N/A,,Clear,0,2013-01-17 20:53:00
2:53 PM,17.1,5.0,59,30.77,10.0,Calm,Calm,-,N/A,,Clear,0,2013-01-17 21:53:00
3:53 PM,14.0,7.0,74,30.79,10.0,Calm,Calm,-,N/A,,Clear,0,2013-01-17 22:53:00
4:53 PM,12.9,6.1,74,30.79,10.0,Calm,Calm,-,N/A,,Clear,0,2013-01-17 23:53:00
5:53 PM,8.1,3.0,80,30.82,10.0,Calm,Calm,-,N/A,,Clear,0,2013-01-18 00:53:00
6:53 PM,1.9,-2.0,83,30.83,9.0,Calm,Calm,-,N/A,,Clear,0,2013-01-18 01:53:00
7:53 PM,-2.0,-6.0,83,30.86,10.0,Calm,Calm,-,N/A,,Clear,0,2013-01-18 02:53:00
8:34 PM,-4.0,-7.6,85,30.49,10.0,NE,3.5,-,N/A,,Partly Cloudy,40,2013-01-18 03:34:00
8:53 PM,-4.0,-8.0,83,30.85,10.0,NNE,4.6,-,N/A,,Clear,30,2013-01-18 03:53:00
9:53 PM,-4.0,-7.1,87,30.83,10.0,NE,3.5,-,N/A,,Clear,50,2013-01-18 04:53:00
10:41 PM,-4.0,-7.6,85,30.47,8.0,Calm,Calm,-,N/A,,Partly Cloudy,0,2013-01-18 05:41:00
10:53 PM,-5.1,-9.0,83,30.81,10.0,Calm,Calm,-,N/A,,Partly Cloudy,0,2013-01-18 05:53:00
11:53 PM,-4.0,-8.0,83,30.77,4.0,ENE,4.6,-,N/A,,Clear,70,2013-01-18 06:53:00